SL-14 R/B, 13590

Orbit data source: Space-Track

SL-14 R/B, 13590 is space debris in LEO originally from a launch on Fri, 24 Sep 1982 UTC launched from the Plesetsk Missile And Space Complex (PKMTR). Debris objects in space refer to the collection of defunct objects orbiting the Earth. Examples of debris include non-operational satellites, rocket bodies, and fragments generated from explosions, collisions, or faulty payload assembly.

Loading next visibility...
Identifier
13590, 1982-096B
Orbit
LEO
Country
Flag of CISCIS
Related business
Manufacturer
Yuzhnoe
Mission
Spacecraft
Bus & Motor
S5M, Unknown motor
Mass
1,600 kg wet, 1,600 kg dry
Launch date (UTC)
1982-09-24 (44 years ago)
Launch vehicle
Unknown
Launch site
Plesetsk Missile And Space Complex (PKMTR)
Object type
Payload
Rocket body
Debris
Shape & HBR
Unknown
Radar Cross Section
Large (>1 m²)

Expand to show TLE details & history
Last TLE update: 2 days ago

TLE from 2 days ago
0 SL-14 R/B
1 13590U 82096B   26171.28691862  .00000031  00000-0  15195-3 0  9990
2 13590  82.6093 102.5289 0005398 309.2162 171.5906 12.42686111983925
Epoch: 2026-06-20T06:53Z
TLE epoch observation values (Epoch: 2026-06-20T06:53:09.768Z)
Latitude
58.48388°
Longitude
-101.41741°
Altitude
1,509.264 km
Speed
7.114 km/s
True Right ascension
18h 01m 30s
True Declination
58° 20' 42"
Sunlit
Object was in daylight at epoch
Visualization orbit readout
Latitude
Unknown
Longitude
Unknown
Altitude
Unknown
Speed
Unknown
Apparent Right ascension
Unknown
Apparent Declination
Unknown
Sunlit
N/A
Visualization observer readout
Local Sidereal Time
23:09:06
Azimuth
Unknown
Elevation
Unknown
Doppler factor
Unknown
Orbital elements
Apogee altitude
1,496.833 km
Perigee altitude
1,488.336 km
Semi-major axis
7,870.721 km
Eccentricity
0.00054
Inclination
82.6093°
RAAN
102.5289°
Arg. of periapsis
309.2162°
True anomaly
171.59964°
Mean anomaly
171.5906°
Eccentric anomaly
171.59512°
Mean motion
3.10829 °/min
Orbital period
115.82 mins
BSTAR
0.00015195
Loading maneuver chart data...
Computing Atmospheric mass density...
Loading historical data...
Loading historical data...
Loading historical data...
Loading historical data...
Loading historical data...
Loading historical data...
Loading historical data...
Other satellites on launch #96 in the year 1982 (1982-09-24 UTC)

Documentation

Showing up to 5 results
|